Regional Weather Roundup
Issued by NWS

Home | Current Version | Previous Version | Text Only | Print | Product List | Glossary On
Versions: 1 2 3 4 5 6 7 8 9 10 11 12 13 14 15 16 17 18 19 20 21 22 23 24 25 26 27 28 29 30 31 32 33 34 35 36 37 38 39 40 41 42 43 44 45 46 47 48 49 50
000
ASUS44 KFWD 020815
RWRTX
NORTH TEXAS HOURLY WEATHER ROUNDUP
NATIONAL WEATHER SERVICE FORT WORTH TX
300 AM CDT SUN AUG 02 2015

NOTE: "FAIR" INDICATES FEW OR NO CLOUDS BELOW 12,000 FEET WITH NO
SIGNIFICANT WEATHER AND/OR OBSTRUCTIONS TO VISIBILITY.

TXZ118-119-020900-
DALLAS/FORT WORTH METROPLEX

CITY           SKY/WX    TMP DP  RH WIND       PRES   REMARKS
DFW AIRPORT    CLOUDY    85  57  38 SE9       29.94F
DALLAS LOVE    CLOUDY    86  58  38 SE14      29.95S
FTW MEACHAM    PTCLDY    85  60  42 SE7       29.95S
DAL-EXECUTIVE  CLOUDY    83  58  42 SE6       29.95S
FTW-ALLIANCE   MOCLDY    81  61  50 SE5       29.95S
FTW-NAS-JRB    MOCLDY    84  60  44 SE3       29.95S
FTW-SPINKS     PTCLDY    80  61  52 SE3       29.96F
ARLINGTON      MOCLDY    86  59  39 SE7       29.95S
GRAND PRAIRIE  PTCLDY    84  60  44 SE5       29.96S
ADDISON        CLOUDY    86  59  39 SE9       29.97S
MESQUITE       PTCLDY    80  58  47 SE3       29.95F
LANCASTER      PTCLDY    78  59  51 CALM      29.96S
$$

TXZ091>094-102>105-117-120-121-131>134-020900-
NORTH CENTRAL TEXAS

CITY           SKY/WX    TMP DP  RH WIND       PRES   REMARKS
SHRMAN/DENISON PTCLDY    82  62  50 SE10      29.97S
GAINESVILLE    CLOUDY    77  62  60 CALM      29.98S
BOWIE          MOCLDY    74  67  77 CALM      29.97F
DECATUR        PTCLDY    80  59  49 CALM      29.97S
DENTON         PTCLDY    79  63  57 S5        29.95S
MCKINNEY       CLOUDY    77  66  68 CALM      29.96S
GREENVILLE     CLEAR     70  63  78 CALM      29.96S
ROCKWALL       CLEAR     79  60  51 SE5       29.94F
TERRELL        CLEAR     76  61  59 CALM      29.96S
WAXAHACHIE     MOCLDY    81  64  55 CALM      29.97S
CLEBURNE         N/A     82  61  47 SE6       29.97F
GRANBURY       MOCLDY    83  59  43 SE5       29.97S
$$

TXZ083>090-098>101-113>116-127>130-139>142-154-155-020900-
WESTERN NORTH TEXAS

CITY           SKY/WX    TMP DP  RH WIND       PRES   REMARKS
WICHITA FALLS  MOCLDY    75  70  84 E6        29.95F
WF-KICKAPOO    MOCLDY    78  69  74 NE5       29.97F
VERNON         CLOUDY    75  68  77 NE3       29.98S
ABILENE        PTCLDY    77  60  55 SE8       29.98F
ABILENE-DYESS  PTCLDY    76  62  62 S7        29.97F
BRECKENRIDGE   CLOUDY    81  65  59 SE6       29.96F
GRAHAM         MOCLDY    76  67  73 E3        29.95F
MINERAL WELLS  CLOUDY    77  65  66 SE5       29.95F
STEPHENVILLE   CLOUDY    79  61  54 CALM      30.00S
COMANCHE       CLOUDY    79  59  50 CALM      29.98S
BROWNWOOD      CLOUDY    77  59  53 CALM      29.98F
COLEMAN        CLOUDY    76  62  62 CALM      29.99F
BRADY          MOCLDY    81  57  44 SE5       29.99F
$$

TXZ143>147-156>162-174-175-020900-
CENTRAL TEXAS

CITY           SKY/WX    TMP DP  RH WIND       PRES   REMARKS
WACO           PTCLDY    76  64  66 CALM      29.94S
WACO-MCGREGOR  PTCLDY    75  54  46 CALM      29.96S
HILLSBORO      MOCLDY    82  59  45 E6        29.95S
CORSICANA      CLEAR     78  63  59 E5        29.96S
MEXIA          CLEAR     76  60  57 E6        29.94S
HEARNE         CLEAR     72  63  74 CALM      29.93F
CAMERON        CLEAR     75  62  64 CALM      29.92F
TEMPLE         CLEAR     81  55  41 CALM      29.94S
KILLEEN        CLOUDY    80  59  48 E3        29.95R
KILLEEN-SKYLRK PTCLDY    81  57  44 E3        29.94F
FORT HOOD      MOCLDY    79  61  53 SE5       29.94S
GATESVILLE     MOCLDY    79  61  53 CALM      29.98S
HAMILTON       CLOUDY    81  56  42 MISG      29.99S
LAMPASAS       PTCLDY    79  60  51 CALM      29.96S
$$

TXZ095>097-106>112-122>126-135>138-148>153-164>167-020900-
EAST TEXAS

CITY           SKY/WX    TMP DP  RH WIND       PRES   REMARKS
PARIS          CLEAR     75  61  60 CALM      29.97S
SULPHUR SPRNGS CLEAR     75  60  59 CALM      29.98S
MOUNT PLEASANT CLEAR     67  65  92 CALM      29.97S
GILMER         CLEAR     68  62  81 CALM      29.96S
MINEOLA        CLEAR     70  64  83 CALM      29.96S
TYLER          CLEAR     76  60  57 SE5       29.95S
LONGVIEW       CLEAR     72  65  78 CALM      29.94F
MARSHALL       CLEAR     71  66  85 CALM      29.97S
ATHENS         CLEAR     70  63  78 CALM      29.94S
PALESTINE      CLEAR     79  60  52 E3        29.95S
JACKSONVILLE   CLEAR     79  55  44 E3        29.97S
HENDERSON      CLEAR     68  64  86 CALM      29.95F
CENTER         FAIR      69  64  85 CALM      29.93F
NACOGDOCHES    CLEAR     66  63  88 CALM      29.93F
LUFKIN         CLEAR     71  63  75 CALM      29.92F
$$

SUPPLEMENTAL OBSERVATIONS (CENTRAL)

CITY           SKY/WX    TMP DP  RH WIND       PRES   REMARKS
LAKE TEXOMA      N/A     75  66  73 E3          N/A
CADDO GRASSLND   N/A     72  64  78 S2          N/A
PAT MAYSE LAKE   N/A     75  61  60 CALM        N/A
GREENVILLE       N/A     75  57  53 SE1         N/A
CEDAR HILL       N/A     82  59  44 SE5         N/A
ATHENS           N/A     72  61  68 NE2         N/A
LAKE LIMESTONE   N/A     73  59  60 E2          N/A
MCGREGOR         N/A     75  57  53 SW2         N/A
TEMPLE           N/A     81  59  47 SE2         N/A
$$

SUPPLEMENTAL OBSERVATIONS (WEST)

CITY           SKY/WX    TMP DP  RH WIND       PRES   REMARKS
MILLERS CREEK    N/A     75  66  73 E5          N/A
POSSUM KINGDOM   N/A     81  63  54 SE5         N/A
LBJ GRASSLAND    N/A    N/A N/A N/A E3          N/A
GRANBURY         N/A     82  59  44 SE7         N/A
COMANCHE         N/A     77  55  47 SE3         N/A
HAMBY            N/A     79  57  47 SE6         N/A
IVIE RESERVOIR   N/A     75  55  50 E5          N/A
COLORADO BEND    N/A     79  55  44 S2          N/A
$$

SUPPLEMENTAL OBSERVATIONS (EAST)

CITY           SKY/WX    TMP DP  RH WIND       PRES   REMARKS
CLARKSVILLE      N/A     72  66  83 CALM        N/A
TEXARKANA        N/A     64  61  88 CALM        N/A
LINDEN           N/A     68  63  83 CALM        N/A
CADDO LAKE       N/A    N/A N/A N/A CALM        N/A
GILMER           N/A     66  63  88 CALM        N/A
HENDERSON        N/A     70  63  78 N2          N/A
LUFKIN           N/A     70  66  88 MISG        N/A
N SABINE NF      N/A     66  61  82 MISG        N/A
S SABINE NF      N/A     66  61  82 CALM        N/A
$$

SUPPLEMENTAL OBSERVATIONS ARE A COLLECTION OF AUTOMATED INSTRUMENTS
THAT ARE MAINTAINED BY A VARIETY OF FEDERAL AND STATE AGENCIES.
CERTAIN ELEMENTS...SUCH AS HUMIDITY VALUES AND SUSTAINED WIND
SPEEDS...MAY BE APPROXIMATED.




USA.gov is the U.S. government's official web portal to all federal, state and local government web resources and services.